Location: Asheville, NC
(35.6000°N, 82.5500°W)
Time: 18:46:55
(UTC-05:00)

Vanguard 1 Rocket - Pass Details

Date: 18 February 2018
Orbit: 655 x 4222 km, 34.3° (Epoch: 16 February)

Event Time Altitude Azimuth Distance (km) Brightness Sun altitude
Rises 08:05:33 0° 286° (WNW) 7,938 11.5 9.3°
Reaches altitude 10° 08:13:55 10° 272° (W) 6,307 11.1 10.8°
Maximum altitude 08:24:38 19° 237° (WSW) 4,549 10.7 12.8°
Drops below altitude 10° 08:32:21 10° 198° (SSW) 4,307 11.0 14.2°
Sets 08:36:31 0° 179° (S) 4,753 11.5 15.0°
